Location: Asheville, NC
(35.6000°N, 82.5500°W)
Time: 22:57:48
(UTC-04:00)

Vanguard 2 Rocket - Visible Passes

Search period start: 20 May 2018 00:00
Search period end: 30 May 2018 00:00
Orbit: 554 x 3327 km, 32.9° (Epoch: 20 May)

Date Brightness Start Highest point End Pass type
(mag) Time Alt. Az. Time Alt. Az. Time Alt. Az.
20 May 9.5 02:10:45 21° ESE 02:10:45 21° ESE 02:14:23 10° ESE visible
20 May 8.7 04:16:41 31° SW 04:18:20 32° SSW 04:30:22 10° SSE visible
20 May 6.4 22:47:11 10° WSW 22:50:31 51° SSW 22:50:31 51° SSW visible
21 May 9.0 03:21:58 30° SSE 03:21:58 30° SSE 03:29:18 10° SE visible
21 May 9.5 05:27:55 12° WSW 05:33:22 17° SSW 05:41:34 10° S visible
21 May 6.3 21:48:28 10° SW 21:52:10 43° SSE 21:54:42 21° ESE visible
22 May 8.8 00:00:20 10° W 00:00:32 11° W 00:00:32 11° W visible
22 May 10.0 02:27:17 12° SE 02:27:17 12° SE 02:28:06 10° SE visible
22 May 9.3 04:33:13 21° SSW 04:33:13 21° SSW 04:42:03 10° SSE visible
22 May 6.6 23:01:35 10° WSW 23:04:38 49° SW 23:04:38 49° SW visible
23 May 9.7 03:38:32 17° SSE 03:38:32 17° SSE 03:41:49 10° SSE visible
23 May 6.0 22:02:43 10° WSW 22:06:32 56° S 22:08:39 28° ESE visible
24 May 9.9 04:49:44 11° SSW 04:49:44 11° SSW 04:51:21 10° S visible
24 May 6.3 21:03:42 10° WSW 21:07:33 43° SSE 21:11:28 10° E visible
24 May 7.1 23:16:03 10° W 23:18:26 35° WSW 23:18:26 35° WSW visible
25 May 5.9 22:17:08 10° W 22:20:59 62° S 22:22:21 39° ESE visible
26 May 6.0 21:17:58 10° WSW 21:21:58 56° S 21:25:59 10° E visible
26 May 7.8 23:30:34 10° W 23:32:03 22° WSW 23:32:03 22° WSW visible
27 May 6.0 22:31:35 10° W 22:35:25 56° S 22:35:56 52° SSE visible
28 May 5.9 21:32:23 10° W 21:36:24 60° S 21:39:47 14° ESE visible
28 May 8.5 23:45:11 10° W 23:45:35 12° WSW 23:45:35 12° WSW visible
29 May 6.5 22:46:07 10° W 22:49:26 41° SSW 22:49:26 41° SSW visible
